Погода в Кымпия-Турзи

Румыния     46°32′49″N   23°53′11″E
темп.,
°C
ветер,
м/с
пор.,
м/с
влажн.,
%
обл.,
%
осадки,
мм/ч
давл.,
гПа
погр.,
м
4 августа, ср
ср400:00+20св00555 0.0 101611
03:00+17юв00685 0.0 101611
06:00+16ююв117229 0.0 101511
09:00+20вюв1162100 0.0 1016154
12:00+25в114738 0.0 1015582
15:00+30сз2330100 0.0 10131831
18:00+27з123999 0.0 1013439
21:00+23в114513 0.0 101211
5 августа, чт
чт500:00+20сз005687 0.0 101311
03:00+18вюв1163100 0.0 101211
06:00+17юв007088 0.0 101211
09:00+23юв245394 0.0 1010339
12:00+32ююв572671 0.0 10071312
15:00+34зюз462219 0.0 10041345
18:00+28зсз894184 0.1 10041100
21:00+18юв368597 0.5 1006176
6 августа, пт
пт600:00+17юз24943 0.0 100676
03:00+16ююв119450 0.2 100511
06:00+15ююз1195100 0.0 100511
09:00+20зюз127665 0.0 1005427
12:00+25зсз2253100 0.1 10051528
15:00+23с436464 2.1 1006888
18:00+23с455698 2.8 10061136
21:00+20сз116391 2.8 100833
7 августа, сб
сб700:00+16сз22794 0.0 101014
03:00+14ссз11900 0.0 101112
06:00+13юз00900 0.0 101210
09:00+18з12680 0.0 1014331
12:00+24сз33400 0.0 10131273
15:00+27ссз33310 0.0 10121887
18:00+28ссз33330 0.0 10121715
21:00+21ссв22485 0.0 101311
8 августа, вс
вс800:00+18вюв005697 0.0 101411
03:00+16всв116251 0.0 101411
06:00+15в116641 0.0 101511
09:00+21ююв23490 0.0 1016318
12:00+29ююз34325 0.0 1014933
15:00+33зюз12225 0.0 10131986
18:00+33с22211 0.0 10132249
21:00+25с12392 0.0 101411